Helicity
375 367 330 283 244 214 189 159 135 116 125 113 102 92 105 118 122 103 89 85 85 82 83 91 89 86 91 90 101 131 129 113 148 122 97 80 93 106 73 70 57 30 14
360 345 330 296 249 207 174 157 138 144 124 94 79 94 117 126 109 98 81 92 82 80 85 90 85 91 79 84 119 117 123 109 134 108 109 96 86 74 84 55 71 52 15
373 363 331 278 231 203 178 166 151 124 81 77 89 110 124 119 104 85 89 86 85 86 90 92 87 81 77 93 117 127 125 138 173 176 134 134 113 106 89 75 64 76 25
372 353 318 266 234 207 188 174 148 87 68 90 113 122 114 109 100 98 101 97 85 86 94 97 88 84 89 108 117 135 167 176 183 196 194 159 137 111 102 62 79 68 65
401 374 322 280 244 221 201 169 90 73 99 106 114 121 122 115 133 117 103 89 82 89 98 107 112 115 107 113 163 163 190 204 199 193 197 181 137 117 109 87 89 52 59
407 367 324 289 246 205 177 108 78 99 110 111 128 133 120 120 163 119 98 84 88 97 106 103 104 91 99 122 133 164 194 196 179 201 196 183 116 91 88 81 77 46 17
423 381 325 264 236 210 166 78 103 120 116 128 127 114 119 132 164 118 86 75 85 89 94 97 97 102 99 112 140 144 160 159 150 143 145 148 119 99 78 64 49 40 48
436 361 296 263 275 205 96 103 129 118 125 131 124 120 118 107 101 70 56 60 74 81 84 79 86 85 93 120 123 144 136 100 92 117 107 98 115 85 70 54 53 40 37
423 356 338 305 212 138 91 144 138 127 108 99 101 95 80 71 63 43 54 68 85 89 90 88 102 100 100 92 110 116 107 83 101 74 87 68 56 11 -15 32 36 25 -11
443 406 333 234 168 109 164 124 112 102 89 88 92 84 82 52 89 78 75 88 100 113 96 91 92 90 85 79 101 104 74 78 67 56 64 65 66 22 19 35 32 25 22
439 356 276 172 110 162 112 105 103 88 90 93 82 64 54 68 68 69 64 88 113 120 117 102 97 83 67 66 71 69 79 59 54 89 89 67 43 31 4 11 11 19 22
429 314 215 107 165 113 115 123 104 108 102 85 74 61 56 53 60 61 76 78 65 86 94 90 92 59 47 50 61 52 49 52 79 80 70 44 28 -3 9 14 15 11 29
330 248 161 161 134 134 135 132 128 105 84 69 51 44 45 44 46 66 63 50 31 65 73 89 88 53 52 71 61 45 52 62 70 76 63 49 61 34 0 -10 40 76 79
282 203 204 175 159 153 143 135 110 86 67 54 48 45 48 48 46 73 69 58 54 63 69 72 64 61 78 93 72 58 59 59 62 15 -51 4 18 1 -29 -29 13 24 37
215 203 210 195 172 164 150 114 86 64 52 53 54 52 54 56 62 49 42 53 61 70 64 67 66 53 56 68 62 47 54 57 34 -48 -71 -14 40 38 13 20 18 11 30
205 205 191 180 169 165 134 97 40 29 42 30 26 45 51 32 39 45 35 36 47 56 60 68 65 63 54 60 57 40 45 48 -21 -51 -55 60 38 13 8 12 15 31 45
200 192 195 178 158 131 100 81 83 74 44 39 60 64 56 65 61 49 24 25 36 48 65 67 67 73 59 59 52 26 35 18 -12 -36 -42 -2 21 -17 -2 2 22 38 47
221 206 172 150 127 105 92 92 100 100 106 113 82 95 88 82 77 51 22 12 54 62 70 68 63 68 63 53 46 23 30 -1 -3 -21 -30 -26 -1 -5 -8 6 15 19 38
211 167 154 127 101 91 96 99 100 103 104 101 104 111 107 80 60 47 36 41 46 64 67 63 66 61 64 49 40 30 31 6 -3 -14 -7 -15 -14 2 -1 6 14 17 19
166 150 110 93 91 90 94 100 112 119 121 123 121 101 99 92 96 96 84 66 40 52 69 59 52 56 52 42 30 33 31 25 -7 -8 6 6 -5 -7 -2 8 12 17 30
110 94 86 87 87 94 105 115 122 135 145 146 141 136 134 129 120 118 105 89 59 44 55 61 39 44 43 34 12 23 31 33 6 8 14 19 15 12 25 39 34 27 27
89 90 97 105 110 119 120 126 139 148 150 147 152 158 166 157 147 142 133 116 96 68 55 63 43 29 35 37 12 9 28 36 19 12 23 31 33 35 44 54 51 55 51
91 98 111 119 129 135 149 153 162 168 160 168 165 176 178 178 177 166 153 143 104 90 78 70 55 27 32 38 28 7 25 35 27 27 33 37 41 44 49 62 57 53 41
118 129 136 148 168 161 182 193 176 169 174 199 208 214 214 203 197 177 166 152 126 102 86 77 67 42 28 30 40 18 24 43 46 34 44 50 52 60 66 68 66 58 55
162 170 172 169 171 179 174 170 190 204 207 204 205 216 223 214 197 187 179 161 134 111 95 88 73 60 43 48 32 25 20 46 51 50 51 57 67 70 85 83 82 72 64
185 185 187 188 188 192 200 209 213 216 218 222 225 222 220 215 205 202 184 166 146 124 104 88 83 86 67 55 46 34 25 40 49 55 55 68 83 100 110 99 77 73 68
Wind_Speed
22 19 16 15 15 18 25 31 37 40 47 52 55 55 58 61 62 62 61 61 61 62 61 62 62 59 57 55 55 57 59 56 57 53 49 48 50 55 69 73 78 83 83
22 18 17 17 19 23 28 33 38 44 49 52 52 54 58 60 60 60 58 58 60 61 61 61 60 55 55 53 55 59 59 55 58 62 61 59 57 56 64 73 67 78 82
22 19 18 19 21 25 30 36 42 46 49 49 51 55 58 57 57 57 58 59 58 60 60 60 57 54 56 57 61 64 61 60 60 66 63 63 58 57 55 68 65 67 75
21 19 19 20 22 27 33 39 43 46 47 48 51 53 53 54 55 56 58 59 60 59 57 56 55 55 57 62 68 69 67 68 68 70 72 71 69 66 66 61 71 67 75
23 20 19 20 24 30 35 40 43 45 47 48 50 50 50 52 52 58 60 61 61 60 58 55 55 61 68 68 70 70 71 73 69 71 74 71 69 67 64 73 65 80 72
22 20 19 21 25 30 35 39 43 46 46 46 47 49 50 51 54 58 61 64 62 60 61 59 59 63 65 71 67 68 70 74 70 71 74 70 68 65 65 74 70 74 78
21 18 19 21 26 32 36 39 43 44 44 46 47 49 51 52 58 61 60 63 62 60 60 62 63 64 71 73 73 74 72 69 62 65 67 63 64 64 69 73 77 63 75
20 18 18 22 28 31 35 42 42 42 44 46 48 50 52 54 57 59 62 61 61 58 59 61 66 69 73 81 82 78 75 68 58 57 55 55 50 59 66 73 73 67 72
19 17 20 24 29 33 39 38 38 40 43 44 47 49 51 52 50 55 61 62 62 64 63 67 69 72 75 80 79 78 73 62 57 53 47 39 30 63 72 73 69 70 77
18 16 19 23 28 35 34 34 36 38 40 43 45 46 48 49 51 58 62 62 70 71 69 71 71 68 70 69 67 65 63 59 60 56 47 36 46 67 67 63 66 72 71
12 14 19 24 30 30 29 31 33 35 37 40 43 45 47 51 55 58 60 66 71 73 70 69 70 71 70 64 55 50 47 52 50 44 36 30 29 56 61 59 63 66 67
12 16 20 25 26 24 26 28 29 32 36 41 46 48 48 51 52 53 59 63 66 67 67 66 68 71 68 58 50 45 47 47 44 45 35 30 26 16 58 58 59 59 57
11 16 20 22 20 20 23 25 28 33 38 42 46 51 54 54 52 53 60 64 65 65 62 62 63 64 59 52 48 47 46 46 50 47 39 34 36 31 56 50 43 37 37
15 18 17 15 16 19 22 26 30 35 38 42 46 51 55 58 59 62 67 65 67 66 68 66 64 58 51 48 46 45 46 45 51 63 34 7 9 7 16 34 37 33 29
14 13 12 13 16 19 25 28 31 32 36 42 46 51 56 59 59 65 69 70 70 70 72 64 64 63 59 59 51 47 42 44 56 58 46 12 17 31 39 34 33 30 23
9 9 10 14 18 23 27 31 30 32 35 37 39 46 51 51 59 65 68 69 71 68 66 64 63 60 58 62 53 44 38 43 58 52 47 32 25 40 33 29 25 20 19
8 11 14 18 21 25 29 32 38 37 34 37 39 45 51 56 60 65 68 68 68 64 61 62 61 57 53 60 54 42 39 56 56 51 42 14 21 30 28 26 20 17 14
11 12 16 20 24 27 30 34 37 42 46 47 41 48 52 56 60 62 66 68 66 62 59 61 61 57 51 58 57 46 39 56 52 47 40 31 21 25 26 23 23 22 19
12 18 21 25 28 29 32 36 38 41 44 46 49 51 50 54 58 58 60 63 65 64 64 62 59 60 55 58 58 48 39 52 49 45 40 34 26 27 29 30 29 28 27
19 24 25 29 31 35 37 39 41 44 46 49 52 52 50 54 59 61 59 59 61 61 62 65 62 60 60 60 61 53 42 38 47 42 38 34 30 28 27 36 39 37 22
26 27 29 34 38 38 40 44 46 48 51 52 51 47 46 53 57 58 58 57 58 60 62 63 66 62 62 61 61 56 47 39 46 42 37 32 28 25 20 13 14 16 31
29 33 35 37 39 42 45 47 51 53 53 52 51 48 47 53 55 56 55 55 56 57 57 62 64 66 62 61 61 60 52 43 39 41 37 31 26 24 18 12 9 9 12
36 37 39 41 44 48 52 53 56 56 56 53 52 54 54 56 56 56 56 56 57 58 60 59 66 65 63 60 59 59 55 46 37 36 35 32 28 24 22 11 7 6 7
35 39 43 47 52 55 58 59 59 59 57 57 56 57 58 58 59 58 57 56 57 59 61 61 64 68 68 65 60 58 54 47 39 36 35 32 31 25 23 17 9 2 5
40 45 51 56 59 60 61 61 62 62 61 60 59 60 62 62 62 61 59 58 59 62 64 66 65 66 70 70 65 61 59 47 39 34 34 35 31 29 24 20 11 5 4
48 53 56 58 60 61 62 63 64 64 64 64 65 66 66 66 64 63 61 61 62 64 67 70 69 72 73 72 69 62 59 51 41 30 29 35 32 32 27 20 14 10 8
Wind_Direction
232 242 251 268 286 305 314 321 326 330 330 330 331 333 334 335 336 335 335 336 337 337 338 338 338 339 339 338 336 333 330 328 322 318 324 323 326 326 323 321 317 310 301
232 242 259 274 291 305 315 322 326 328 330 330 332 334 335 336 337 338 339 340 340 339 340 339 339 341 338 336 334 332 330 328 325 319 322 321 318 321 321 320 323 314 302
230 242 258 276 293 307 316 322 325 327 329 331 334 334 336 338 340 341 341 341 341 340 340 339 339 340 337 335 333 330 328 326 324 319 315 320 318 319 320 317 321 322 307
226 241 259 278 296 309 316 321 324 327 329 332 334 336 338 339 341 343 343 343 341 340 340 340 339 337 335 333 330 328 328 326 324 319 316 315 315 314 312 314 311 318 310
227 242 261 283 300 311 317 322 326 328 330 332 334 337 340 342 344 343 343 341 339 339 340 340 338 335 330 329 329 327 327 325 323 320 317 316 313 311 308 306 309 304 312
227 245 267 288 303 312 320 324 326 328 332 334 336 339 340 341 343 343 342 340 340 339 339 339 337 335 333 331 330 330 328 326 322 320 318 315 314 310 308 302 303 303 302
230 251 272 292 306 315 321 325 328 331 334 336 337 338 338 340 342 342 342 341 341 341 341 340 338 337 334 332 331 330 330 328 322 321 318 315 313 311 306 299 294 302 297
236 256 278 296 309 317 322 325 328 332 334 336 337 338 338 339 341 342 343 344 344 344 343 341 337 335 334 332 330 330 331 332 332 330 326 322 318 313 304 293 291 299 295
239 260 284 300 310 316 321 325 331 333 334 335 337 338 339 341 345 346 347 347 345 344 343 340 337 334 333 332 331 331 333 336 338 335 331 327 319 257 267 286 289 290 281
245 269 293 305 312 318 321 325 329 332 334 337 340 343 344 345 349 348 350 348 343 342 341 340 340 339 337 336 335 335 336 341 344 346 346 348 339 305 298 294 289 281 282
247 280 301 311 316 320 324 327 331 334 339 341 342 344 345 346 347 350 350 347 344 343 343 344 345 344 342 341 341 341 342 344 347 350 352 352 353 325 305 298 286 281 279
263 290 305 312 318 321 326 331 335 338 340 339 340 341 345 347 349 352 351 350 347 345 345 346 347 347 346 347 348 349 349 350 354 355 0 3 6 15 303 298 287 278 279
275 298 308 315 320 327 330 333 338 337 336 338 339 340 342 347 350 351 350 349 349 348 347 347 348 349 351 353 354 353 355 357 354 358 5 9 6 7 294 286 297 313 305
288 299 307 311 319 325 329 332 333 334 336 338 339 339 341 345 348 349 348 349 350 348 348 349 352 354 357 357 357 359 359 360 354 330 271 309 31 93 176 238 273 291 301
293 296 305 309 315 321 326 330 331 336 338 337 339 341 342 344 346 347 348 349 349 347 346 352 355 358 358 356 359 2 5 3 342 303 286 255 58 31 313 294 282 283 317
276 289 295 303 310 319 322 325 330 333 337 339 343 343 344 344 344 346 348 349 347 347 349 352 355 360 359 354 358 6 12 6 313 299 296 37 62 354 319 290 281 327 351
268 284 296 305 311 315 317 320 323 328 333 337 341 343 343 343 345 346 347 348 347 349 350 351 353 359 0 354 357 7 11 335 319 308 295 197 113 276 263 258 298 328 325
285 291 300 306 309 313 316 319 323 325 328 333 335 338 340 342 344 346 347 346 347 348 348 348 349 354 359 352 349 359 7 317 319 308 295 274 191 208 255 260 244 234 231
291 297 305 308 310 312 316 318 321 324 327 329 332 334 337 340 342 345 347 346 345 343 343 343 345 346 351 345 342 349 1 321 310 304 303 295 235 191 196 199 202 201 201
297 303 304 308 310 311 313 316 319 321 322 324 326 329 334 338 339 341 344 343 343 341 338 337 338 338 339 335 330 335 347 347 300 301 304 308 287 238 222 188 179 182 202
297 301 302 305 307 311 314 315 316 317 318 319 320 324 328 331 333 336 338 341 342 340 336 332 331 330 328 327 320 319 328 338 299 296 294 300 295 280 279 328 16 35 71
300 303 304 305 308 310 312 314 313 313 314 314 316 318 320 323 326 330 333 335 337 337 337 330 326 323 320 320 310 303 309 318 314 292 289 291 295 288 292 312 358 10 45
300 303 305 307 308 310 310 310 311 310 310 310 311 313 315 317 320 323 326 329 330 330 330 330 322 319 315 313 309 300 298 303 311 296 287 283 284 281 275 293 340 25 47
304 304 306 307 309 309 309 309 309 309 309 309 309 309 310 313 315 317 320 323 324 324 322 323 320 312 309 303 306 297 294 297 298 292 284 281 274 272 268 272 282 330 80
308 309 309 309 309 309 309 310 310 310 309 308 307 307 308 309 310 312 315 317 317 317 315 314 315 311 304 298 295 292 286 293 292 290 280 274 270 262 261 260 253 235 147
311 311 311 311 310 311 310 310 310 310 310 308 308 307 307 307 308 309 310 311 311 311 309 307 306 303 298 295 289 290 284 284 285 284 280 269 263 256 252 247 230 220 180